Flag for Dominican Republic Weather past 2 weeks in Santiago de los Caballeros, Dominican Republic

75 °F

Passing clouds.

Feels Like: 74 °F
Forecast: 74 / 95 °F
Wind: 5 mph from East

Location: Santiago

Current Time: Oct 7, 2015 at 4:32:10 AM

Latest Report: Oct 7, 2015 at 4:00 AM

Visibility: N/A

Pressure: 29.92 "Hg

Humidity: 94%

Dew point: 73 °F

Location of Santiago de los CaballerosLocation

Historic Weather in Santiago de los Caballeros — Graph


Santiago de los Caballeros temperature yesterday

Maximum temperature yesterday: 95 °F (at 2:00 PM)
Minimum temperature yesterday: 77 °F (at 2:00 AM)
Average temperature yesterday: 84 °F

Past Weeks' High & Low Weather Summary

High99 °F (Oct 3, 3:00 PM)100% (Sep 24, 8:00 PM)30.01 "Hg (Sep 24, 8:00 PM)
Low70 °F (Sep 26, 7:00 AM)25% (Oct 3, 3:00 PM)27.24 "Hg (Oct 4, 9:00 PM)
Average81 °F75%29.83 "Hg
* Reported Sep 22 3:00 AM — Oct 7 3:00 AM, Santiago de los Caballeros, Weather by CustomWeather, © 2015

Note: Actual official high and low records may vary slightly from our data, if they occured in-between our weather recording intervals... More about our weather records


Santiago de los Caballeros weather history for previous 24 hours

Time TempWeatherWind HumidityBarometerVisibility
3:00 AM
Wed, Oct 7
77 °FPassing clouds.5 mph89%29.92 "HgN/A
2:00 AM77 °FPassing clouds.5 mph89%29.95 "HgN/A
1:00 AM79 °FPassing clouds.5 mph84%29.95 "HgN/A
12:00 AM79 °FPassing clouds.5 mph84%29.95 "HgN/A
11:00 PM
Tue, Oct 6
79 °FPassing clouds.7 mph84%29.98 "HgN/A
10:00 PM81 °FPassing clouds.9 mph79%29.95 "HgN/A
9:00 PM82 °FPassing clouds.12 mph74%29.95 "HgN/A
8:00 PM86 °FPassing clouds.12 mph62%29.92 "HgN/A
7:00 PM86 °FPassing clouds.9 mph59%29.89 "HgN/A
6:00 PM90 °FPassing clouds.12 mph52%29.89 "HgN/A
5:00 PM93 °FPassing clouds.18 mph47%29.89 "HgN/A
4:00 PM95 °FPassing clouds.18 mph41%29.89 "HgN/A
3:00 PM95 °FPassing clouds.14 mph41%29.89 "HgN/A
2:00 PM95 °FPassing clouds.18 mph44%29.92 "HgN/A
1:00 PM93 °FPassing clouds.16 mph49%29.95 "HgN/A
12:00 PM91 °FPassing clouds.17 mph52%29.98 "HgN/A
11:00 AM88 °FPassing clouds.12 mph62%30.01 "HgN/A
10:00 AM86 °FPassing clouds.14 mph66%30.01 "HgN/A
9:00 AM82 °FPartly sunny.9 mph79%30.01 "HgN/A
8:00 AM79 °FPartly sunny.7 mph89%29.98 "HgN/A
7:00 AM77 °FPartly sunny.5 mph100%29.95 "HgN/A
6:00 AM77 °FPassing clouds.5 mph100%29.95 "HgN/A
5:00 AM77 °FPassing clouds.5 mph89%29.95 "HgN/A
4:00 AM77 °FPassing clouds.9 mph94%29.92 "HgN/A
Weather by CustomWeather, © 2015

See weather overviewHow to use our weather pages